Regional Weather Roundup
Issued by NWS Sioux Falls, SD

Home | Current Version | Previous Version | Text Only | Print | Product List | Glossary On
Versions: 1 2 3 4 5 6 7 8 9 10 11 12 13 14 15 16 17 18 19 20 21 22 23 24 25 26 27 28 29 30 31 32 33 34 35 36 37 38 39 40 41 42 43 44 45 46 47 48 49 50
000
ASUS43 KFSD 191902
RWRFSD

WEATHER ROUNDUP FOR SE SOUTH DAKOTA/SW MINNESOTA/NW IOWA
NATIONAL WEATHER SERVICE SIOUX FALLS SD
200 PM CDT SAT AUG 19 2017

NOTE: "FAIR" INDICATES FEW OR NO CLOUDS BELOW 12,000 FEET WITH NO
SIGNIFICANT WEATHER AND OR OBSTRUCTIONS TO VISIBILITY.


SDZ038>040-050-052>070-192000-
SOUTHEAST SOUTH DAKOTA

CITY           SKY/WX    TMP DP  RH WIND       PRES   REMARKS
BROOKINGS      SUNNY     76  61  59 S13       29.92F
CHAMBERLAIN    SUNNY     85  64  49 SE15G22   29.83F
HURON          SUNNY     80  60  50 S18G25    29.84F
MADISON        FAIR      75  64  69 S13       29.93F
MITCHELL       SUNNY     81  62  52 SE16G23   29.87F
SIOUX FALLS    SUNNY     78  63  59 S12G17    29.92F
WINNER         FAIR      87  62  43 S18G24    29.83F
YANKTON        SUNNY     80  63  55 E12       29.90F
$$

MNZ071-072-080-081-089-090-097-098-192000-
SOUTHWEST MINNESOTA

CITY           SKY/WX    TMP DP  RH WIND       PRES   REMARKS
FAIRMONT       MOSUNNY   75  63  66 S8        29.95F
JACKSON        SUNNY     75  63  64 CALM      29.96F
MARSHALL       SUNNY     78  59  51 S12       29.92F
MONTEVIDEO     SUNNY     81  64  57 S9        29.91F
PIPESTONE      SUNNY     75  63  64 S10       29.94F
REDWOOD FALLS  SUNNY     77  62  59 S7        29.92F
TRACY          SUNNY     78  64  63 S7        29.94F
WINDOM         SUNNY     77  61  57 S6        29.95S
WORTHINGTON    SUNNY     75  62  64 S6        29.96F
$$

IAZ001>003-012>014-020>022-031-032-NEZ013-014-SDZ071-192000-
NORTHWEST IOWA

CITY           SKY/WX    TMP DP  RH WIND       PRES   REMARKS
CHEROKEE       SUNNY     79  64  60 S7        29.95F
DENISON        SUNNY     79  63  57 CALM      29.97F
ESTHERVILLE    MOSUNNY   75  65  70 SE8       29.95F
LE MARS        SUNNY     79  63  57 VRB6G12   29.94F
ORANGE CITY    SUNNY     79  64  61 SE5       29.95F
SHELDON        SUNNY     77  64  65 VRB6G13   29.94S
SIOUX CITY     SUNNY     80  65  59 SE6       29.93F
SPENCER        SUNNY     78  63  59 SE7       29.95F
STORM LAKE       N/A     75  66  73 SE6       29.96F
$$

ABBREVIATIONS USED IN REMARKS
   TC - TEMPERATURE IN CELSIUS
  WCI - WIND CHILL INDEX
   HX - HEAT INDEX
  VSB - VISIBILITY




USA.gov is the U.S. government's official web portal to all federal, state and local government web resources and services.